15 daagse weersverwachting Renens (CH)

  • Overzicht
  • Per uur
  • 15 dagen
  • Extra
  • Vergelijk
  • Kaarten
  • Dagkaart
  • Meer »
  • Info
  • Statistieken
  • Directe link
    Temp 6h Neerslag Wind  
 05:42     21:30    Daglengte: 15:48 Vandaag
08:00
18°
 
2
warningclass
14:00
21°
 
2
20:00
20°
4.0 mm
2
warningclass
 05:42     21:30    Daglengte: 15:48 Morgen
02:00
18°
 
2
08:00
17°
 
2
14:00
22°
 
3
20:00
20°
 
5
 05:42     21:30    Daglengte: 15:48 Zaterdag 22 Jun
02:00
18°
 
4
08:00
17°
25.6 mm
2
14:00
20°
13.2 mm
2
20:00
19°
27.4 mm
1
Locatie info
Region: Ouest Lausannois
Latitude: 46.5391°N
Longitude: 6.5794°E
441 masl
Postcode: 1020
Temp/Neerslag /Baro Onweer/Dauwpunt
    Temp Baro 1h Neerslag Dauwpunt Wind UV Bewolking  
 05:42     21:30    Daglengte: 15:48 Vandaag
04:00
19°
1013.8 hPa
13%
15.8°
2
Windvlaag: 1.4 km/h
68%
05:00
18°
1013.7 hPa
60%
15.5°
2
Windvlaag: -0.2 km/h
57%
06:00
18°
1014.0 hPa
77%
15.4°
1
Windvlaag: -0.4 km/h
64%
07:00
18°
1014.1 hPa
79%
15.3°
1
Windvlaag: 0.9 km/h
69%
08:00
18°
1014.4 hPa
82%
15.0°
2
Windvlaag: 1.1 km/h
74% warningclass
09:00
19°
1014.5 hPa
82%
14.8°
3
Windvlaag: 2.2 km/h
73% warningclass
10:00
19°
1014.7 hPa
82%
14.4°
3
Windvlaag: 2.1 km/h
59%
11:00
19°
1014.7 hPa
82%
14.5°
3
Windvlaag: 1.7 km/h
45%
12:00
20°
1014.6 hPa
41%
14.6°
2
Windvlaag: 1.5 km/h
16%
13:00
20°
1014.5 hPa
26%
14.5°
2
Windvlaag: 1.5 km/h
14%
14:00
21°
1014.3 hPa
66%
14.3°
2
Windvlaag: 1.3 km/h
7%
15:00
21°
1014.2 hPa
75%
14.6°
2
Windvlaag: 1.5 km/h
10%
16:00
21°
1014.2 hPa
77%
15.0°
2
Windvlaag: 1.6 km/h
15%
17:00
21°
1014.0 hPa
79%
15.0°
1
Windvlaag: 1.4 km/h
39%
18:00
21°
1014.3 hPa 4.0 mm
80%
15.9°
2
Windvlaag: 1.5 km/h
57% warningclass
19:00
20°
1014.5 hPa
81%
16.0°
1
Windvlaag: 1.3 km/h
57%
20:00
20°
1014.9 hPa
75%
16.1°
2
Windvlaag: -1 km/h
78%
21:00
20°
1015.4 hPa
68%
15.9°
2
Windvlaag: -1.3 km/h
75%
22:00
19°
1015.9 hPa
34%
15.7°
2
Windvlaag: -0.7 km/h
46%
23:00
19°
1016.2 hPa
71%
15.3°
2
Windvlaag: 1.6 km/h
74%
 05:42     21:30    Daglengte: 15:48 Morgen
00:00
18°
1016.4 hPa
33%
15.4°
2
Windvlaag: 1.4 km/h
75%
01:00
18°
1016.4 hPa
31%
15.5°
2
Windvlaag: 0.4 km/h
49%
02:00
18°
1016.4 hPa
29%
15.5°
2
Windvlaag: 0.5 km/h
42%
03:00
17°
1016.5 hPa
28%
15.5°
2
Windvlaag: 0.8 km/h
63%
04:00
17°
1016.2 hPa
25%
15.5°
2
Windvlaag: 0.5 km/h
55%
05:00
17°
1016.1 hPa
30%
15.3°
2
Windvlaag: 0.3 km/h
48%
06:00
17°
1016.2 hPa
27%
15.3°
2
Windvlaag: 0.4 km/h
46%
07:00
17°
1016.6 hPa
66%
15.3°
2
Windvlaag: 0 km/h
38%
08:00
17°
1016.9 hPa
70%
15.3°
2
Windvlaag: -0.4 km/h
40%
09:00
18°
1016.9 hPa
37%
15.5°
3
Windvlaag: -0.7 km/h
34%
10:00
19°
1016.9 hPa
35%
15.3°
3
Windvlaag: -1 km/h
58%
11:00
20°
1016.6 hPa
32%
15.2°
3
Windvlaag: -1.2 km/h
36%
12:00
21°
1016.3 hPa
71%
14.9°
3
Windvlaag: -1.2 km/h
28%
13:00
21°
1015.9 hPa
74%
14.8°
3
Windvlaag: -1.3 km/h
58%
14:00
22°
1015.6 hPa
79%
15.1°
3
Windvlaag: -1 km/h
57%
15:00
22°
1015.2 hPa
74%
15.6°
3
Windvlaag: -0.7 km/h
59%
16:00
22°
1014.9 hPa
82%
15.6°
3
Windvlaag: 0.5 km/h
69%
17:00
21°
1014.8 hPa
82%
16.1°
4
Windvlaag: 0.7 km/h
64%
18:00
21°
1014.8 hPa
81%
16.2°
4
Windvlaag: -0.9 km/h
64%
19:00
21°
1014.9 hPa
44%
16.5°
3
Windvlaag: -1.7 km/h
73%
20:00
20°
1015.0 hPa
42%
15.6°
5
Windvlaag: -2.3 km/h
69%
21:00
19°
1015.2 hPa
82%
15.4°
5
Windvlaag: -2.7 km/h
60%
22:00
19°
1015.9 hPa
82%
15.5°
4
Windvlaag: -2.6 km/h
58%
23:00
19°
1015.9 hPa
99%
16.0°
5
Windvlaag: -2.5 km/h
81%
 05:42     21:30    Daglengte: 15:48 Zaterdag 22 Jun
00:00
18°
1015.9 hPa
99%
15.5°
4
Windvlaag: -2.3 km/h
84%
01:00
18°
1016.1 hPa
49%
15.4°
4
Windvlaag: -2.4 km/h
97%
02:00
18°
1015.9 hPa
84%
15.5°
4
Windvlaag: -1.9 km/h
96%
03:00
18°
1015.7 hPa
94%
15.3°
4
Windvlaag: -1.5 km/h
93%
04:00
18°
1015.4 hPa
98%
15.1°
3
Windvlaag: -1.6 km/h
75%
05:00
17°
1015.3 hPa 5.7 mm
99%
15.1°
3
Windvlaag: -1.5 km/h
76%
06:00
17°
1015.7 hPa 6.1 mm
100%
15.2°
3
Windvlaag: -1.3 km/h
94%
07:00
17°
1015.9 hPa 7.0 mm
100%
15.0°
3
Windvlaag: -1.1 km/h
97% warningclass
08:00
17°
1016.1 hPa 6.8 mm
100%
14.9°
2
Windvlaag: -1 km/h
92%
09:00
18°
1016.2 hPa 13.2 mm
100%
15.0°
2
Windvlaag: 4.6 km/h
90% warningclass
10:00
18°
1016.2 hPa
100%
15.2°
2
Windvlaag: 6.5 km/h
76%
11:00
18°
1016.1 hPa
100%
15.3°
2
Windvlaag: 7.1 km/h
70%
12:00
19°
1016.1 hPa
99%
15.6°
2
Windvlaag: 5.5 km/h
70%
13:00
20°
1016.1 hPa
95%
15.9°
2
Windvlaag: 5.9 km/h
70%
14:00
20°
1016.1 hPa
99%
16.0°
2
Windvlaag: 0.8 km/h
49%
15:00
20°
1016.0 hPa
99%
16.2°
2
Windvlaag: 4.9 km/h
55%
16:00
20°
1016.0 hPa
99%
16.4°
2
Windvlaag: 3.5 km/h
56%
17:00
20°
1016.0 hPa
99%
16.3°
2
Windvlaag: 4.1 km/h
61%
18:00
20°
1016.2 hPa
96%
16.2°
1
Windvlaag: 3 km/h
64%
19:00
20°
1016.5 hPa 13.8 mm
91%
16.1°
2
Windvlaag: 3.8 km/h
69%
20:00
19°
1016.6 hPa 13.6 mm
86%
16.1°
1
Windvlaag: 0.4 km/h
52%
21:00
19°
1016.6 hPa
21%
15.8°
1
Windvlaag: 3.4 km/h
52%
22:00
18°
1016.7 hPa
21%
15.6°
1
Windvlaag: 2.1 km/h
51%
23:00
18°
1016.9 hPa
21%
15.6°
2
Windvlaag: 3.4 km/h
48%
 05:42     21:30    Daglengte: 15:48 Zondag 23 Jun
00:00
18°
1017.0 hPa
21%
15.6°
1
Windvlaag: 2.9 km/h
40%
01:00
18°
1016.9 hPa
21%
15.5°
2
Windvlaag: 3.2 km/h
33%
02:00
17°
1016.9 hPa
22%
15.5°
2
Windvlaag: 0.4 km/h
40%
03:00
18°
1017.6 hPa   15.4°
3
Windvlaag: 0 km/h
36%
Temp/Neerslag /Baro Onweer/Dauwpunt
    Temp Baro Neerslag Dauwpunt Wind Bewolking  
 05:42     21:30    Daglengte: 15:48 Vandaag
05:00
18°
1013.7 hPa   15.5°
2
57%
08:00
18°
1014.4 hPa   15.0°
2
74% warningclass
11:00
19°
1014.7 hPa   14.5°
3
45%
14:00
21°
1014.3 hPa   14.3°
2
7%
17:00
21°
1014.0 hPa   15.0°
1
39%
20:00
20°
1014.9 hPa 4.0 mm 16.1°
2
78% warningclass
23:00
19°
1016.2 hPa   15.3°
2
74%
 05:42     21:30    Daglengte: 15:48 Morgen
02:00
18°
1016.4 hPa   15.5°
2
42%
05:00
17°
1016.1 hPa   15.3°
2
48%
08:00
17°
1016.9 hPa   15.3°
2
40%
11:00
20°
1016.6 hPa   15.2°
3
36%
14:00
22°
1015.6 hPa   15.1°
3
57%
17:00
21°
1014.8 hPa   16.1°
4
64%
20:00
20°
1015.0 hPa   15.6°
5
69%
23:00
19°
1015.9 hPa   16.0°
5
81%
 05:42     21:30    Daglengte: 15:48 Zaterdag 22 Jun
02:00
18°
1015.9 hPa   15.5°
4
96%
05:00
17°
1015.3 hPa 5.7 mm 15.1°
3
76%
08:00
17°
1016.1 hPa 19.9 mm 14.9°
2
92%
11:00
18°
1016.1 hPa 13.2 mm 15.3°
2
70% warningclass
14:00
20°
1016.1 hPa   16.0°
2
49%
17:00
20°
1016.0 hPa   16.3°
2
61%
20:00
19°
1016.6 hPa 27.4 mm 16.1°
1
52%
23:00
18°
1016.9 hPa   15.6°
2
48%
 05:42     21:30    Daglengte: 15:48 Zondag 23 Jun
02:00
17°
1016.9 hPa   15.5°
2
40%
05:00
17°
1017.6 hPa 26.1 mm 15.2°
3
24%
08:00
17°
1017.7 hPa 26.1 mm 15.1°
3
14%
11:00
20°
1017.1 hPa 26.1 mm 16.0°
4
10%
14:00
23°
1016.5 hPa 26.2 mm 16.7°
4
6%
17:00
23°
1016.4 hPa 26.2 mm 17.1°
4
49%
20:00
23°
1016.4 hPa 26.2 mm 17.7°
4
91%
23:00
21°
1017.4 hPa 26.2 mm 16.9°
3
47%
 05:43     21:30    Daglengte: 15:47 Maandag 24 Jun
02:00
18°
1018.2 hPa 26.2 mm 16.1°
2
3%
05:00
18°
1018.7 hPa 26.2 mm 15.8°
2
4%
08:00
18°
1019.2 hPa 26.2 mm 15.7°
2
4%
11:00
22°
1018.8 hPa 26.2 mm 16.8°
1
2%
14:00
25°
1018.4 hPa 26.2 mm 17.3°
1
0%
17:00
25°
1018.1 hPa 26.2 mm 17.6°
1
6%
20:00
26°
1017.8 hPa 26.2 mm 18.0°
1
13%
23:00
23°
1018.8 hPa 26.2 mm 18.6°
2
40%
 05:43     21:30    Daglengte: 15:47 Dinsdag 25 Jun
02:00
20°
1019.8 hPa 26.2 mm 19.0°
2
67%
05:00
20°
1020.3 hPa 26.2 mm 18.2°
2
34%
08:00
21°
1020.9 hPa 26.2 mm 17.5°
2
1%
11:00
24°
1020.4 hPa 26.2 mm 18.7°
2
1%
14:00
26°
1019.9 hPa 26.2 mm 19.7°
2
0%
17:00
28°
1019.3 hPa 26.2 mm 18.3°
2
0%
20:00
28°
1018.7 hPa 26.2 mm 16.9°
1
0%
23:00
25°
1019.6 hPa 26.2 mm 19.4°
1
0%
 05:43     21:30    Daglengte: 15:47 Woensdag 26 Jun
02:00
22°
1020.4 hPa 26.2 mm 20.2°
2
0%
05:00
22°
1020.7 hPa 26.2 mm 19.6°
2
1%
08:00
22°
1021.1 hPa 26.2 mm 19.0°
2
1%
11:00
25°
1020.6 hPa 26.2 mm 19.1°
1
10%
14:00
28°
1020.2 hPa 26.2 mm 18.4°
0
19%
17:00
28°
1019.3 hPa 26.2 mm 17.7°
1
34%
20:00
28°
1018.5 hPa 26.2 mm 17.2°
1
49%
23:00
26°
1019.1 hPa 26.2 mm 19.9°
2
24%
 05:44     21:30    Daglengte: 15:46 Donderdag 27 Jun
02:00
23°
1019.5 hPa 52.3 mm 21.1°
2
0%
08:00
24°
1019.9 hPa 52.3 mm 20.8°
1
0%
14:00
28°
1019.1 hPa 52.3 mm 18.4°
1
1%
20:00
29°
1016.9 hPa 52.3 mm 19.9°
1
13%
 05:44     21:30    Daglengte: 15:46 Vrijdag 28 Jun
02:00
24°
1017.8 hPa 52.3 mm 21.8°
2
0%
08:00
24°
1017.4 hPa 52.3 mm 20.3°
1
0%
14:00
29°
1016.0 hPa 52.3 mm 20.8°
1
1%
20:00
28°
1014.0 hPa 52.8 mm 20.6°
1
15%
 05:45     21:30    Daglengte: 15:45 Zaterdag 29 Jun
02:00
26°
1014.6 hPa 57.1 mm 22.5°
1
81%
08:00
23°
1016.7 hPa 58.1 mm 21.1°
0
0%
14:00
28°
1014.9 hPa 58.1 mm 23.8°
1
0%
20:00
28°
1014.6 hPa 60.9 mm 23.6°
1
0%
 05:45     21:30    Daglengte: 15:45 Zondag 30 Jun
02:00
19°
1014.9 hPa 0.8 mm 16.3°
2
26%
08:00
21°
1015.3 hPa 0.6 mm 17.8°
1
25%
14:00
27°
1014.0 hPa 0.3 mm 17.2°
2
24%
20:00
24°
1014.1 hPa 1.5 mm 19.6°
2
28%
 05:46     21:30    Daglengte: 15:44 Maandag 01 Jul
02:00
16°
1015.8 hPa 1.3 mm 14.4°
1
29%
08:00
18°
1015.6 hPa 0.5 mm 15.2°
1
28%
14:00
24°
1014.2 hPa 0.6 mm 15.5°
2
32%
20:00
21°
1014.4 hPa 2.6 mm 16.9°
2
32%
 05:47     21:30    Daglengte: 15:43 Dinsdag 02 Jul
02:00
14°
1015.8 hPa 1.1 mm 12.6°
1
33%
08:00
15°
1015.5 hPa 0.2 mm 13.6°
1
44%
14:00
20°
1014.1 hPa 0.9 mm 13.8°
3
48%
20:00
18°
1014.4 hPa 0.9 mm 14.3°
2
48%
 05:47     21:29    Daglengte: 15:42 Woensdag 03 Jul
02:00
11°
1015.7 hPa 0.4 mm 10.3°
0
36%
08:00
14°
1015.4 hPa 0.4 mm 11.9°
0
37%
14:00
19°
1014.0 hPa 1.1 mm 13.1°
2
42%
20:00
17°
1014.0 hPa 2.8 mm 13.6°
2
52%
 05:48     21:29    Daglengte: 15:41 Donderdag 04 Jul
02:00
11°
1015.2 hPa 1.3 mm 9.9°
1
38%
08:00
13°
1015.3 hPa 1.2 mm 11.2°
1
47%
14:00
19°
1014.3 hPa 1.1 mm 12.4°
2
43%
20:00
17°
1014.8 hPa 1.7 mm 13.6°
2
44%
 05:49     21:29    Daglengte: 15:40 Vrijdag 05 Jul
02:00
11°
1016.7 hPa 1.5 mm 9.9°
1
35%
  CAPE Lifted Index Hail Supercell Tornado SRH 3km CL BTM PRES CL TOP PRES Swiss DWD icon SMHI TS
 05:42     21:30    Daglengte: 15:48 Vandaag
04:00 727 J/kg -2.8 K 0 % 0 % 0 % 0 m²/s² 0 0 -2.05 3
05:00 858 J/kg -3.5 K 0 % 0 % 0 % 0 m²/s² 0 0 -2.93 3
06:00 718 J/kg -4.1 K 0 % 0 % 0 % 0 m²/s² 0 0 -3.38 3
07:00 818 J/kg -3.9 K 0 % 0 % 0 % 0 m²/s² 0 0 -3.09 3
08:00 739 J/kg -3.2 K 0 % 0 % 0 % 0 m²/s² 0 0 -2.63 95
09:00 423 J/kg -1.0 K 0 % 0 % 0 % 0 m²/s² 0 0 0.38 95
10:00 919 J/kg -2.8 K 0 % 0 % 0 % 0 m²/s² 0 0 -1.99 80
11:00 1099 J/kg -3.0 K 0 % 0 % 0 % 0 m²/s² 0 0 -1.8 61
12:00 1099 J/kg -3.9 K 0 % 0 % 0 % 0 m²/s² 0 0 -2.76 3
13:00 1017 J/kg -3.9 K 0 % 0 % 0 % 0 m²/s² 0 0 -2.94 0
14:00 998 J/kg -4.1 K 0 % 0 % 0 % 0 m²/s² 0 0 -4.01 0
15:00 1390 J/kg -5.6 K 0 % 0 % 0 % 0 m²/s² 0 0 -5.39 1
16:00 1459 J/kg -5.3 K 0 % 0 % 0 % 0 m²/s² 0 0 -3.29 80
17:00 1370 J/kg -4.6 K 0 % 0 % 0 % 0 m²/s² 0 0 -4.24 80
18:00 1459 J/kg -5.1 K 0 % 0 % 0 % 0 m²/s² 0 0 -2.94 2
19:00 1358 J/kg -5.0 K 0 % 0 % 0 % 0 m²/s² 0 0 -4.37 80
20:00 1255 J/kg -4.3 K 0 % 0 % 0 % 0 m²/s² 0 0 -3.16 80
21:00 893 J/kg -3.0 K 0 % 0 % 0 % 0 m²/s² 0 0 -2.19 3
22:00 580 J/kg -1.7 K 0 % 0 % 0 % 0 m²/s² 0 0 -0.71 3
23:00 380 J/kg -1.6 K 0 % 0 % 0 % 0 m²/s² 0 0 -0.13 3
 05:42     21:30    Daglengte: 15:48 Morgen
00:00 378 J/kg -1.0 K 0 % 0 % 0 % 0 m²/s² 0 0 0.71 3
01:00 415 J/kg -1.3 K 0 % 0 % 0 % 0 m²/s² 0 0 0.05 2
02:00 468 J/kg -2.1 K 0 % 0 % 0 % 0 m²/s² 0 0 -0.15 2
03:00 532 J/kg -2.5 K 0 % 0 % 0 % 0 m²/s² 0 0 -0.67 3
04:00 558 J/kg -2.2 K 0 % 0 % 0 % 0 m²/s² 0 0 -0.49 3
05:00 554 J/kg -2.0 K 0 % 0 % 0 % 0 m²/s² 0 0 -0.74 3
06:00 578 J/kg -1.9 K 0 % 0 % 0 % 0 m²/s² 0 0 -0.61 2
07:00 553 J/kg -1.3 K 0 % 0 % 0 % 0 m²/s² 0 0 -0.01 2
08:00 569 J/kg -1.2 K 0 % 0 % 0 % 0 m²/s² 0 0 -0.06 2
09:00 786 J/kg -2.1 K 0 % 0 % 0 % 0 m²/s² 0 0 -0.84 2
10:00 893 J/kg -2.5 K 0 % 0 % 0 % 0 m²/s² 0 0 -1.39 3
11:00 891 J/kg -2.7 K 0 % 0 % 0 % 0 m²/s² 0 0 -1.8 3
12:00 869 J/kg -2.9 K 0 % 0 % 0 % 0 m²/s² 0 0 -2.09 2
13:00 830 J/kg -2.7 K 0 % 0 % 0 % 0 m²/s² 0 0 -1.89 3
14:00 873 J/kg -2.9 K 0 % 0 % 0 % 0 m²/s² 0 0 -1.34 3
15:00 890 J/kg -3.0 K 0 % 0 % 0 % 0 m²/s² 0 0 -1.08 3
16:00 1315 J/kg -4.1 K 0 % 0 % 0 % 0 m²/s² 0 0 -2.66 3
17:00 1438 J/kg -3.7 K 0 % 0 % 0 % 0 m²/s² 0 0 -2.68 80
18:00 1264 J/kg -4.4 K 0 % 0 % 0 % 0 m²/s² 0 0 -4.37 80
19:00 1361 J/kg -4.6 K 0 % 0 % 0 % 0 m²/s² 0 0 -4.48 3
20:00 790 J/kg -3.2 K 0 % 0 % 0 % 0 m²/s² 0 0 -2.81 3
21:00 591 J/kg -2.8 K 0 % 0 % 0 % 0 m²/s² 0 0 -1.93 61
22:00 541 J/kg -2.6 K 0 % 0 % 0 % 0 m²/s² 0 0 -1.73 61
23:00 356 J/kg -2.4 K 0 % 0 % 0 % 0 m²/s² 0 0 -1.53 61
 05:42     21:30    Daglengte: 15:48 Zaterdag 22 Jun
00:00 337 J/kg -1.7 K 0 % 0 % 0 % 0 m²/s² 0 0 -0.89 3
01:00 337 J/kg -0.6 K 0 % 0 % 0 % 0 m²/s² 0 0 -0.6 3
02:00 626 J/kg -2.3 K 0 % 0 % 0 % 0 m²/s² 0 0 -1.64 3
03:00 531 J/kg -1.8 K 0 % 0 % 0 % 0 m²/s² 0 0 -1.41 3
04:00 558 J/kg -1.7 K 0 % 0 % 0 % 0 m²/s² 0 0 -1.4 3
05:00 399 J/kg -1.4 K 0 % 0 % 0 % 0 m²/s² 0 0 -1.1 3
06:00 464 J/kg -1.8 K 0 % 0 % 0 % 0 m²/s² 0 0 -1.68 80
07:00 517 J/kg -2.2 K 0 % 0 % 0 % 0 m²/s² 0 0 -2.17 61
08:00 606 J/kg -2.4 K 0 % 0 % 0 % 0 m²/s² 0 0 -1.92 61
09:00 772 J/kg -2.8 K 0 % 0 % 0 % 0 m²/s² 0 0 -2.38 80
10:00 907 J/kg -3.2 K 0 % 0 % 0 % 0 m²/s² 0 0 -2.63 3
11:00 1040 J/kg -3.7 K 0 % 0 % 0 % 0 m²/s² 0 0 -2.17 3
12:00 1180 J/kg -4.2 K 0 % 0 % 0 % 0 m²/s² 0 0 -1.62 3
13:00 1133 J/kg -3.9 K 0 % 0 % 0 % 0 m²/s² 0 0 -0.3 3
14:00 955 J/kg -3.0 K 0 % 0 % 0 % 0 m²/s² 0 0 0.6 3
15:00 1025 J/kg -3.1 K 0 % 0 % 0 % 0 m²/s² 0 0 0.8 3
16:00 1204 J/kg -3.4 K 0 % 0 % 0 % 0 m²/s² 0 0 0.02 2
17:00 1115 J/kg -2.8 K 0 % 0 % 0 % 0 m²/s² 0 0 1.55 3
18:00 925 J/kg -2.7 K 0 % 0 % 0 % 0 m²/s² 0 0 0.57 3
19:00 987 J/kg -2.3 K 0 % 0 % 0 % 0 m²/s² 0 0 2.17 80
20:00 1013 J/kg -2.3 K 0 % 0 % 0 % 0 m²/s² 0 0 2.53 1
21:00 988 J/kg -2.4 K 0 % 0 % 0 % 0 m²/s² 0 0 2.46 0
22:00 772 J/kg -1.7 K 0 % 0 % 0 % 0 m²/s² 0 0 3.16 0
23:00 523 J/kg -1.4 K 0 % 0 % 0 % 0 m²/s² 0 0 3.76 0
 05:42     21:30    Daglengte: 15:48 Zondag 23 Jun
00:00 354 J/kg -1.0 K 0 % 0 % 0 % 0 m²/s² 0 0 3.62 1
01:00 330 J/kg -0.8 K 0 % 0 % 0 % 0 m²/s² 0 0 3.97 0
02:00 243 J/kg -0.6 K 0 % 0 % 0 % 0 m²/s² 0 0 4.29 1
03:00 0 J/kg 0.0 K 0 % 0 % 0 % 0 m²/s² 0 0 13.83
Temp Baro Wind Neerslag
  EWN Forecast EWN WRFDA DWD ICON FMI HIRLAM MET Norway GFS
 05:42     21:30    Daglengte: 15:48 Vandaag
05:00 18.3° 1013.7 hPa 1.7 m/s 0.0 mm 19.0° 1012.0 hPa 5.1 m/s 0.2 mm 17.2° 1014.0 hPa 0.7 m/s -1.9 mm 18.6° 1015.8 hPa 2.1 m/s 0.0 mm 18.5° 1013.5 hPa 0.9 m/s 0.0 mm 15.8° 1015.2 hPa 0.4 m/s
08:00 18.5° 1014.4 hPa 2.0 m/s 0.0 mm 19.8° 1012.8 hPa 3.0 m/s 0.8 mm 15.7° 1015.6 hPa 3.0 m/s 1.3 mm 18.8° 1015.6 hPa 1.2 m/s 0.0 mm 19.0° 1014.3 hPa 2.1 m/s 0.0 mm 16.3° 1015.6 hPa 0.8 m/s
11:00 19.3° 1014.7 hPa 2.6 m/s 0.0 mm 20.2° 1013.8 hPa 6.3 m/s 4.6 mm 15.5° 1017.1 hPa 3.0 m/s 4.9 mm 20.4° 1014.9 hPa 0.8 m/s 0.0 mm 19.9° 1014.4 hPa 2.7 m/s 0.0 mm 17.7° 1015.5 hPa 0.7 m/s
14:00 21.3° 1014.3 hPa 2.0 m/s 0.0 mm 21.9° 1013.7 hPa 1.3 m/s 7.6 mm 20.4° 1015.8 hPa 3.0 m/s 0.0 mm 22.7° 1014.5 hPa 2.3 m/s 0.0 mm 21.6° 1014.2 hPa 0.4 m/s 0.0 mm 19.9° 1014.7 hPa 1.1 m/s
17:00 21.0° 1014.0 hPa 1.1 m/s 0.0 mm 22.4° 1012.8 hPa 1.6 m/s 34.7 mm 19.7° 1014.9 hPa 1.1 m/s 2.9 mm 23.1° 1014.0 hPa 1.4 m/s 0.0 mm 21.1° 1014.1 hPa 0.5 m/s 0.0 mm 20.8° 1013.8 hPa 0.8 m/s
20:00 20.3° 1014.9 hPa 2.0 m/s 4.0 mm 22.4° 1013.8 hPa 2.2 m/s 68.9 mm 19.6° 1015.9 hPa 0.9 m/s 0.8 mm 22.0° 1014.8 hPa 1.9 m/s 0.0 mm 20.1° 1015.1 hPa 2.1 m/s 0.0 mm 20.1° 1015.6 hPa 0.1 m/s
23:00 18.5° 1016.2 hPa 1.9 m/s 0.0 mm 19.2° 1014.5 hPa 5.1 m/s 82.3 mm 17.6° 1016.3 hPa 0.1 m/s 0.1 mm 20.3° 1016.4 hPa 1.0 m/s 0.0 mm 18.5° 1016.2 hPa 1.8 m/s 0.0 mm 17.0° 1017.2 hPa 0.8 m/s
 05:42     21:30    Daglengte: 15:48 Morgen
02:00 17.6° 1016.4 hPa 1.9 m/s 0.0 mm 18.3° 1015.1 hPa 5.0 m/s 83.6 mm 16.2° 1017.1 hPa 0.7 m/s 0.0 mm 18.3° 1016.8 hPa 3.0 m/s 0.0 mm 17.8° 1015.8 hPa 1.7 m/s 0.0 mm 15.3° 1017.4 hPa 0.7 m/s
05:00 16.7° 1016.1 hPa 2.0 m/s 0.0 mm 17.9° 1014.5 hPa 5.7 m/s 83.6 mm 15.1° 1017.2 hPa 1.1 m/s 0.0 mm 17.2° 1016.4 hPa 3.2 m/s 0.0 mm 16.7° 1015.9 hPa 1.8 m/s 0.0 mm 14.7° 1017.3 hPa 1.1 m/s
08:00 17.3° 1016.9 hPa 2.2 m/s 0.0 mm 19.3° 1014.4 hPa 6.7 m/s 83.6 mm 16.8° 1017.5 hPa 1.4 m/s 0.0 mm 18.5° 1015.1 hPa 4.3 m/s 0.0 mm 17.0° 1017.4 hPa 1.8 m/s 1.3 mm 16.3° 1017.8 hPa 1.7 m/s
11:00 19.7° 1016.6 hPa 3.0 m/s 0.0 mm 22.5° 1014.7 hPa 6.0 m/s 83.6 mm 20.2° 1017.2 hPa 3.5 m/s 0.0 mm 22.0° 1013.1 hPa 3.6 m/s 0.0 mm 18.7° 1017.7 hPa 2.3 m/s 0.8 mm 19.6° 1017.5 hPa 2.8 m/s
14:00 21.6° 1015.6 hPa 3.1 m/s 0.0 mm 25.1° 1013.0 hPa 4.9 m/s 83.6 mm 22.1° 1016.4 hPa 4.1 m/s 0.1 mm 24.4° 1011.9 hPa 2.3 m/s 0.0 mm 20.6° 1016.6 hPa 3.3 m/s 0.0 mm 22.3° 1016.5 hPa 2.6 m/s
17:00 21.1° 1014.8 hPa 3.8 m/s 0.0 mm 23.2° 1012.2 hPa 9.2 m/s 84.4 mm 21.1° 1015.9 hPa 4.3 m/s 0.9 mm 23.1° 1011.4 hPa 1.4 m/s 0.0 mm 21.0° 1016.2 hPa 3.8 m/s 0.0 mm 21.4° 1016.0 hPa 3.0 m/s
20:00 19.6° 1015.0 hPa 4.7 m/s 0.0 mm 21.8° 1012.7 hPa 4.4 m/s 88.9 mm 18.9° 1016.7 hPa 4.3 m/s 0.2 mm 18.9° 1012.9 hPa 10.9 m/s 0.0 mm 20.3° 1016.5 hPa 2.7 m/s 0.0 mm 19.4° 1016.1 hPa 4.4 m/s
23:00 18.5° 1015.9 hPa 4.6 m/s 0.0 mm 19.8° 1012.5 hPa 7.2 m/s 91.5 mm 17.5° 1016.8 hPa 2.4 m/s 2.0 mm 18.6° 1016.5 hPa 4.8 m/s 0.0 mm 17.0° 1017.1 hPa 2.4 m/s
 05:42     21:30    Daglengte: 15:48 Zaterdag 22 Jun
02:00 17.7° 1015.9 hPa 4.0 m/s 0.0 mm 18.1° 1013.1 hPa 4.2 m/s 98.8 mm 16.7° 1016.5 hPa 3.9 m/s 0.2 mm 17.9° 1016.4 hPa 4.4 m/s 0.0 mm 16.6° 1016.8 hPa 2.5 m/s
05:00 17.3° 1015.3 hPa 2.8 m/s 5.7 mm 19.2° 1010.7 hPa 2.2 m/s 110.4 mm 16.3° 1016.1 hPa 2.9 m/s 0.5 mm 17.3° 1016.0 hPa 3.2 m/s 0.7 mm 15.5° 1016.1 hPa 1.8 m/s
08:00 17.3° 1016.1 hPa 2.2 m/s 19.9 mm 20.2° 1012.3 hPa 2.2 m/s 113.1 mm 16.1° 1016.9 hPa 2.9 m/s 3.0 mm 17.3° 1016.5 hPa 1.5 m/s 3.8 mm 16.3° 1016.9 hPa 1.6 m/s
11:00 18.5° 1016.1 hPa 2.2 m/s 13.2 mm 21.7° 1012.5 hPa 5.9 m/s 118.6 mm 18.0° 1016.5 hPa 2.3 m/s 0.5 mm 18.1° 1016.5 hPa 1.4 m/s 18.2° 1016.6 hPa 0.2 m/s
14:00 20.2° 1016.1 hPa 1.9 m/s 0.0 mm 24.1° 1012.5 hPa 5.0 m/s 120.2 mm 20.7° 1016.5 hPa 1.8 m/s 0.1 mm 19.0° 1016.5 hPa 1.4 m/s 19.8° 1016.5 hPa 0.6 m/s
17:00 20.1° 1016.0 hPa 1.6 m/s 0.0 mm 24.4° 1012.3 hPa 3.9 m/s 120.4 mm 20.8° 1015.9 hPa 2.0 m/s 0.2 mm 18.7° 1016.9 hPa 0.9 m/s 20.0° 1015.8 hPa 0.7 m/s
20:00 19.4° 1016.6 hPa 1.3 m/s 27.4 mm 23.1° 1012.7 hPa 2.6 m/s 121.6 mm 19.6° 1016.8 hPa 2.2 m/s 0.6 mm 18.4° 1017.3 hPa 0.4 m/s 20.1° 1016.5 hPa 1.5 m/s
23:00 18.1° 1016.9 hPa 1.6 m/s 0.0 mm 20.9° 1014.0 hPa 1.9 m/s 122.9 mm 17.1° 1017.0 hPa 2.0 m/s 0.0 mm 17.9° 1017.4 hPa 1.2 m/s 17.1° 1017.8 hPa 1.7 m/s
 05:42     21:30    Daglengte: 15:48 Zondag 23 Jun
02:00 17.5° 1016.9 hPa 2.1 m/s 0.0 mm 19.4° 1013.6 hPa 2.3 m/s 125.2 mm 16.2° 1016.9 hPa 2.0 m/s 0.0 mm 17.5° 1017.5 hPa 2.1 m/s 15.9° 1017.8 hPa 2.2 m/s
05:00 17.3° 1017.6 hPa 2.9 m/s 26.1 mm 17.5° 1017.6 hPa 2.9 m/s 15.6° 1017.5 hPa 2.4 m/s 26.1 mm
08:00 17.4° 1017.7 hPa 3.2 m/s 26.1 mm 17.5° 1017.7 hPa 3.3 m/s 16.7° 1017.5 hPa 2.2 m/s 26.1 mm
11:00 20.2° 1017.1 hPa 3.9 m/s 26.1 mm 20.2° 1017.1 hPa 4.0 m/s 19.2° 1017.1 hPa 2.0 m/s 26.1 mm
14:00 22.9° 1016.5 hPa 4.5 m/s 26.2 mm 23.0° 1016.5 hPa 4.8 m/s 21.8° 1016.5 hPa 1.1 m/s 26.2 mm
17:00 23.0° 1016.4 hPa 4.4 m/s 26.2 mm 22.9° 1016.4 hPa 4.7 m/s 23.1° 1016.4 hPa 0.9 m/s 26.2 mm
20:00 22.8° 1016.4 hPa 4.3 m/s 26.2 mm 22.9° 1016.3 hPa 4.6 m/s 22.3° 1017.4 hPa 0.4 m/s 26.2 mm
23:00 20.6° 1017.4 hPa 2.9 m/s 26.2 mm 20.7° 1017.2 hPa 3.1 m/s 18.9° 1019.3 hPa 1.1 m/s 26.2 mm
 05:43     21:30    Daglengte: 15:47 Maandag 24 Jun
02:00 18.4° 1018.2 hPa 1.5 m/s 26.2 mm 18.5° 1018.1 hPa 1.6 m/s 17.5° 1019.8 hPa 0.9 m/s 26.2 mm
05:00 18.2° 1018.7 hPa 1.8 m/s 26.2 mm 18.4° 1018.6 hPa 1.9 m/s 17.1° 1019.4 hPa 0.7 m/s 26.2 mm
08:00 18.3° 1019.2 hPa 2.1 m/s 26.2 mm 18.2° 1019.1 hPa 2.1 m/s 19.2° 1019.9 hPa 1.6 m/s 26.2 mm
11:00 21.6° 1018.8 hPa 1.4 m/s 26.2 mm 21.4° 1018.8 hPa 1.5 m/s 23.1° 1019.2 hPa 0.7 m/s 26.2 mm
14:00 24.8° 1018.4 hPa 0.8 m/s 26.2 mm 24.7° 1018.4 hPa 0.8 m/s 25.4° 1018.8 hPa 0.8 m/s 26.2 mm
17:00 25.3° 1018.1 hPa 0.8 m/s 26.2 mm 25.2° 1018.0 hPa 0.9 m/s 26.9° 1018.2 hPa 0.3 m/s 26.2 mm
20:00 25.7° 1017.8 hPa 0.9 m/s 26.2 mm 25.7° 1017.7 hPa 0.9 m/s 25.4° 1018.6 hPa 0.8 m/s 26.2 mm
23:00 23.0° 1018.8 hPa 1.6 m/s 26.2 mm 23.1° 1018.7 hPa 1.6 m/s 21.8° 1020.4 hPa 1.1 m/s 26.2 mm
 05:43     21:30    Daglengte: 15:47 Dinsdag 25 Jun
02:00 20.5° 1019.8 hPa 2.2 m/s 26.2 mm 20.5° 1019.7 hPa 2.3 m/s 20.3° 1020.6 hPa 1.6 m/s 26.2 mm
05:00 20.5° 1020.3 hPa 1.9 m/s 26.2 mm 20.6° 1020.4 hPa 1.9 m/s 19.3° 1020.0 hPa 1.1 m/s 26.2 mm
08:00 20.8° 1020.9 hPa 1.6 m/s 26.2 mm 20.7° 1021.0 hPa 1.6 m/s 21.5° 1020.1 hPa 1.1 m/s 26.2 mm
11:00 23.6° 1020.4 hPa 1.9 m/s 26.2 mm 23.5° 1020.5 hPa 1.9 m/s 24.7° 1019.6 hPa 0.8 m/s 26.2 mm
14:00 26.4° 1019.9 hPa 2.2 m/s 26.2 mm 26.4° 1020.0 hPa 2.3 m/s 26.7° 1019.1 hPa 1.1 m/s 26.2 mm
17:00 27.5° 1019.3 hPa 1.6 m/s 26.2 mm 27.4° 1019.3 hPa 1.6 m/s 28.6° 1018.8 hPa 0.6 m/s 26.2 mm
20:00 28.3° 1018.7 hPa 1.0 m/s 26.2 mm 28.4° 1018.6 hPa 1.0 m/s 27.6° 1019.3 hPa 0.9 m/s 26.2 mm
23:00 24.9° 1019.6 hPa 1.3 m/s 26.2 mm 25.0° 1019.5 hPa 1.4 m/s 23.7° 1021.3 hPa 0.7 m/s 26.2 mm
 05:43     21:30    Daglengte: 15:47 Woensdag 26 Jun
02:00 21.6° 1020.4 hPa 1.7 m/s 26.2 mm 21.6° 1020.3 hPa 1.8 m/s 21.7° 1021.3 hPa 0.1 m/s 26.2 mm
05:00 21.8° 1020.7 hPa 1.6 m/s 26.2 mm 21.9° 1020.7 hPa 1.8 m/s 20.8° 1020.9 hPa 0.5 m/s 26.2 mm
08:00 22.1° 1021.1 hPa 1.6 m/s 26.2 mm 22.1° 1021.1 hPa 1.7 m/s 22.7° 1020.7 hPa 0.7 m/s 26.2 mm
11:00 25.0° 1020.6 hPa 0.9 m/s 26.2 mm 24.9° 1020.7 hPa 0.9 m/s 26.2° 1020.0 hPa 0.3 m/s 26.2 mm
14:00 27.6° 1020.2 hPa 0.3 m/s 26.2 mm 27.6° 1020.3 hPa 0.2 m/s 28.1° 1019.0 hPa 1.0 m/s 26.2 mm
17:00 28.2° 1019.3 hPa 0.5 m/s 26.2 mm 28.1° 1019.4 hPa 0.5 m/s 29.3° 1017.7 hPa 0.8 m/s 26.2 mm
20:00 28.4° 1018.5 hPa 0.8 m/s 26.2 mm 28.5° 1018.5 hPa 0.8 m/s 27.6° 1018.1 hPa 0.7 m/s 26.2 mm
23:00 25.5° 1019.1 hPa 1.5 m/s 26.2 mm 25.6° 1019.0 hPa 1.6 m/s 24.0° 1019.1 hPa 0.6 m/s 26.2 mm
 05:44     21:30    Daglengte: 15:46 Donderdag 27 Jun
02:00 22.8° 1019.5 hPa 2.2 m/s 26.2 mm 22.8° 1019.6 hPa 2.4 m/s 22.4° 1018.8 hPa 0.6 m/s 26.2 mm
08:00 24.5° 1019.9 hPa 1.0 m/s 26.2 mm 24.6° 1020.0 hPa 1.0 m/s 23.3° 1018.3 hPa 0.6 m/s 26.2 mm
14:00 28.1° 1019.1 hPa 0.5 m/s 26.2 mm 28.1° 1019.4 hPa 0.5 m/s 28.4° 1015.9 hPa 1.0 m/s 26.2 mm
20:00 28.6° 1016.9 hPa 1.1 m/s 26.2 mm 28.7° 1017.0 hPa 1.2 m/s 28.1° 1015.6 hPa 0.5 m/s 26.2 mm
 05:44     21:30    Daglengte: 15:46 Vrijdag 28 Jun
02:00 24.4° 1017.8 hPa 1.7 m/s 26.2 mm 24.6° 1017.9 hPa 1.9 m/s 22.4° 1017.1 hPa 0.1 m/s 26.2 mm
08:00 23.7° 1017.4 hPa 0.8 m/s 26.2 mm 23.7° 1017.5 hPa 0.9 m/s 23.5° 1016.5 hPa 0.2 m/s 26.2 mm
14:00 28.9° 1016.0 hPa 1.4 m/s 26.2 mm 28.9° 1016.1 hPa 1.5 m/s 28.3° 1015.0 hPa 0.8 m/s 26.2 mm
20:00 28.3° 1014.0 hPa 1.3 m/s 26.6 mm 28.3° 1013.9 hPa 1.3 m/s 27.9° 1014.5 hPa 1.2 m/s 26.6 mm
 05:45     21:30    Daglengte: 15:45 Zaterdag 29 Jun
02:00 25.7° 1014.6 hPa 1.4 m/s 28.8 mm 26.0° 1014.4 hPa 1.5 m/s 22.1° 1016.7 hPa 0.8 m/s 28.8 mm
08:00 22.8° 1016.7 hPa 0.1 m/s 29.1 mm 22.8° 1016.7 hPa 0.1 m/s 29.1 mm
14:00 27.9° 1014.9 hPa 1.2 m/s 29.1 mm 27.9° 1014.9 hPa 1.2 m/s 29.1 mm
20:00 27.7° 1014.6 hPa 1.4 m/s 31.1 mm 27.7° 1014.6 hPa 1.4 m/s 31.1 mm
 05:45     21:30    Daglengte: 15:45 Zondag 30 Jun
02:00 18.7° 1014.9 hPa 1.6 m/s 0.8 mm
08:00 20.8° 1015.3 hPa 1.4 m/s 0.6 mm
14:00 26.9° 1014.0 hPa 2.2 m/s 0.3 mm
20:00 24.3° 1014.1 hPa 1.7 m/s 1.5 mm
 05:46     21:30    Daglengte: 15:44 Maandag 01 Jul
02:00 16.2° 1015.8 hPa 1.2 m/s 1.3 mm
08:00 18.2° 1015.6 hPa 1.2 m/s 0.5 mm
14:00 23.6° 1014.2 hPa 2.3 m/s 0.6 mm
20:00 20.7° 1014.4 hPa 2.0 m/s 2.6 mm
 05:47     21:30    Daglengte: 15:43 Dinsdag 02 Jul
02:00 13.6° 1015.8 hPa 0.8 m/s 1.1 mm
08:00 15.5° 1015.5 hPa 0.6 m/s 0.2 mm
14:00 19.8° 1014.1 hPa 2.5 m/s 0.9 mm
20:00 18.0° 1014.4 hPa 1.9 m/s 0.9 mm
 05:47     21:29    Daglengte: 15:42 Woensdag 03 Jul
02:00 11.2° 1015.7 hPa 0.3 m/s 0.4 mm
08:00 14.0° 1015.4 hPa 0.3 m/s 0.4 mm
14:00 19.0° 1014.0 hPa 2.4 m/s 1.1 mm
20:00 17.3° 1014.0 hPa 2.0 m/s 2.8 mm
 05:48     21:29    Daglengte: 15:41 Donderdag 04 Jul
02:00 10.8° 1015.2 hPa 0.7 m/s 1.3 mm
08:00 13.2° 1015.3 hPa 1.1 m/s 1.2 mm
14:00 18.8° 1014.3 hPa 2.1 m/s 1.1 mm
20:00 17.3° 1014.8 hPa 1.6 m/s 1.7 mm
 05:49     21:29    Daglengte: 15:40 Vrijdag 05 Jul
02:00 11.0° 1016.7 hPa 1.5 m/s 1.5 mm
FMI Hirlam - 7.5 km EWN WRFDA - 12 km DWD ICON - 7 km GFS - 25 km Basiskaart






























































Updatetijd (Europe/Amsterdam) Resolutie Lengte Stap
FMI Hirlam 01:15, 07:15, 13:15, 19:15 7.5 km 49h 1h
EWN WRFDA 22:15, 04:15, 10:15, 16:15 12 km 73h 1h
DWD ICON 23:45, 05:45, 11:45, 17:45 7 km 75h 1h
GFS 02:30, 08:30, 14:30, 20:30 25 km 237h 3h
30+ mm
25-30 mm
20-25 mm
15-20 mm
10-15 mm
6-10 mm
4-6 mm
2-4 mm
1-2 mm
0.5-1 mm
0.2-0.5 mm
0.1-0.2 mm
30+ mm
25-30 mm
20-25 mm
15-20 mm
10-15 mm
6-10 mm
4-6 mm
2-4 mm
1-2 mm
0.5-1 mm
0.2-0.5 mm
0.1-0.2 mm
Sneeuwval
Natte sneeuw
Hagel
Vorst
30+ mm
25-30 mm
20-25 mm
15-20 mm
10-15 mm
6-10 mm
4-6 mm
2-4 mm
1-2 mm
0.5-1 mm
0.2-0.5 mm
0.1-0.2 mm
Sneeuwval
Natte sneeuw
Hagel
Vorst
Onweer
50 mm
40 mm
30 mm
26 mm
22 mm
18 mm
14 mm
10 mm
9 mm
8 mm
7 mm
6 mm
5 mm
4.5 mm
4 mm
3.5 mm
3 mm
2.5 mm
2 mm
1.5 mm
1 mm
0.8 mm
0.6 mm
0.4 mm
0.2 mm
0.05 mm
35°
30°
25°
20°
15°
10°
-5°
-10°
-15°
-20°
-25°
-30°
-35°
120> km/h
105 km/h
90 km/h
75 km/h
60 km/h
50 km/h
40 km/h
30 km/h
20 km/h
10 km/h
0 km/h
2600 J/kg
2400 J/kg
2200 J/kg
2000 J/kg
1800 J/kg
1600 J/kg
1400 J/kg
1200 J/kg
1000 J/kg
800 J/kg
600 J/kg
400 J/kg
200 J/kg
70 dBZ
65 dBZ
60 dBZ
55 dBZ
50 dBZ
45 dBZ
40 dBZ
35 dBZ
30 dBZ
25 dBZ
20 dBZ
15 dBZ
10 dBZ
5 dBZ
-1 K
-2 K
-3 K
-4 K
-5 K
-6 K
-7 K
-8 K
-9 K
950 m²/s²
900 m²/s²
850 m²/s²
800 m²/s²
750 m²/s²
700 m²/s²
650 m²/s²
600 m²/s²
550 m²/s²
500 m²/s²
450 m²/s²
400 m²/s²
350 m²/s²
300 m²/s²
250 m²/s²
200 m²/s²
150 m²/s²
100 m²/s²
46 m/s
44 m/s
42 m/s
40 m/s
38 m/s
36 m/s
34 m/s
32 m/s
30 m/s
28 m/s
26 m/s
24 m/s
22 m/s
20 m/s
16 m/s
12 m/s
8 m/s
4 m/s
30 m/s
28 m/s
26 m/s
24 m/s
22 m/s
20 m/s
18 m/s
16 m/s
14 m/s
12 m/s
10 m/s
8 m/s
6 m/s
4 m/s
2 m/s
3.0
2.8
2.6
2.4
2.2
2.0
1.8
1.6
1.4
1.2
1.0
0.8
0.6
0.4
0.2
15
14
13
12
11
10
9
8
7
6
5
4
3
2
1
90%
80%
70%
60%
50%
40%
30%
20%
10%
42
40
38
36
34
32
30
28
26
24
22
20
18
16
14
12
90+ cm
80-90 cm
70-80 cm
60-70 cm
50-60 cm
40-50 cm
30-40 cm
20-30 cm
10-20 cm
1-10 cm
Sneeuwval
Natte sneeuw
Regen
>120 mm
115 mm
110 mm
105 mm
100 mm
95 mm
90 mm
85 mm
80 mm
75 mm
70 mm
65 mm
60 mm
55 mm
50 mm
45 mm
45 mm
40 mm
35 mm
30 mm
25 mm
20 mm
15 mm
10 mm
5 mm
0.1 mm
960 hPa
880 hPa
800 hPa
720 hPa
640 hPa
560 hPa
584 gpdm
568 gpdm
552 gpdm
536 gpdm
520 gpdm
504 gpdm
488 gpdm
Extreem zwaar Noodweer Kans op onweer
15% 15% 5% 50% 15%

Dag




Kaart






35°
30°
25°